When you browse on this site, cookies collect data to enhance your experience and personalize the content and advertising you see.
Visit our Privacy Policy to learn more. By continuing to use the site, you agree to this use of cookies and data.
EN

Hourly Weather Baygulovo

Today, 10 August, Monday

Time Temperature Precipitation Wind Pressure Humidity
00:00 +13°C° 0 mm 4 mps 748 mmHg 88%
01:00 +13°C° 0 mm 4 mps 748 mmHg 90%
02:00 +12°C° 0 mm 5 mps 748 mmHg 92%
03:00 +12°C° 0 mm 5 mps 749 mmHg 94%
04:00 +12°C° 0 mm 5 mps 749 mmHg 92%
05:00 +12°C° 0 mm 5 mps 749 mmHg 90%
06:00 +11°C° 0 mm 6 mps 749 mmHg 88%
07:00 +14°C° 0 mm 6 mps 749 mmHg 82%
08:00 +15°C° 0 mm 6 mps 749 mmHg 76%
09:00 +16°C° 0 mm 7 mps 749 mmHg 70%
10:00 +17°C° 0 mm 7 mps 749 mmHg 67%
11:00 +18°C° 0 mm 7 mps 749 mmHg 63%
12:00 +20°C° 0 mm 7 mps 749 mmHg 60%
13:00 +20°C° 0 mm 7 mps 749 mmHg 60%
14:00 +20°C° 0 mm 7 mps 749 mmHg 59%
15:00 +20°C° 0 mm 7 mps 749 mmHg 59%
16:00 +20°C° 0 mm 6 mps 749 mmHg 62%
17:00 +19°C° 0 mm 5 mps 750 mmHg 66%
18:00 +17°C° 0 mm 5 mps 750 mmHg 70%
19:00 +17°C° 0 mm 4 mps 750 mmHg 72%
20:00 +15°C° 0 mm 4 mps 750 mmHg 75%
21:00 +14°C° 0 mm 4 mps 750 mmHg 78%
22:00 +13°C° 0 mm 4 mps 750 mmHg 80%
23:00 +12°C° 0 mm 4 mps 751 mmHg 83%

Tomorrow, 11 August, Tuesday

Time Temperature Precipitation Wind Pressure Humidity
00:00 +12°C° 0 mm 4 mps 751 mmHg 86%
01:00 +11°C° 0 mm 3 mps 751 mmHg 88%
02:00 +11°C° 0 mm 3 mps 751 mmHg 90%
03:00 +10°C° 0 mm 3 mps 752 mmHg 93%
04:00 +11°C° 0 mm 3 mps 752 mmHg 90%
05:00 +11°C° 0 mm 3 mps 752 mmHg 87%
06:00 +12°C° 0 mm 3 mps 752 mmHg 84%
07:00 +14°C° 0 mm 4 mps 752 mmHg 78%
08:00 +17°C° 0 mm 4 mps 752 mmHg 72%
09:00 +18°C° 0 mm 4 mps 752 mmHg 67%
10:00 +19°C° 0 mm 4 mps 752 mmHg 63%
11:00 +20°C° 0 mm 4 mps 752 mmHg 59%
12:00 +21°C° 0 mm 4 mps 751 mmHg 55%
13:00 +21°C° 0 mm 4 mps 751 mmHg 56%
14:00 +22°C° 0 mm 4 mps 751 mmHg 56%
15:00 +22°C° 0 mm 4 mps 751 mmHg 57%
16:00 +21°C° 0 mm 3 mps 751 mmHg 62%
17:00 +20°C° 0 mm 3 mps 752 mmHg 67%
18:00 +19°C° 0 mm 2 mps 752 mmHg 73%
19:00 +18°C° 0 mm 2 mps 752 mmHg 75%
20:00 +16°C° 0 mm 2 mps 752 mmHg 78%
21:00 +15°C° 0 mm 1 mps 752 mmHg 81%
22:00 +15°C° 0 mm 1 mps 752 mmHg 81%
23:00 +13°C° 0 mm 0 mps 752 mmHg 82%

Day after tomorrow, 12 August, Wednesday

Time Temperature Precipitation Wind Pressure Humidity
00:00 +13°C° 0 mm 0 mps 752 mmHg 83%
01:00 +14°C° 0 mm 0 mps 752 mmHg 81%
02:00 +14°C° 0 mm 0 mps 752 mmHg 79%
03:00 +14°C° 0 mm 0 mps 752 mmHg 77%
04:00 +14°C° 0 mm 0 mps 752 mmHg 78%
05:00 +15°C° 0 mm 0 mps 751 mmHg 79%
06:00 +15°C° 0 mm 0 mps 751 mmHg 80%
07:00 +15°C° 0.1 mm 0 mps 751 mmHg 82%
08:00 +15°C° 0.1 mm 0 mps 751 mmHg 84%
09:00 +15°C° 0.1 mm 0 mps 752 mmHg 86%
10:00 +16°C° 0.2 mm 1 mps 752 mmHg 84%
11:00 +18°C° 0.2 mm 1 mps 752 mmHg 83%
12:00 +17°C° 0.2 mm 2 mps 752 mmHg 81%
13:00 +17°C° 0.1 mm 2 mps 752 mmHg 82%
14:00 +17°C° 0.1 mm 2 mps 751 mmHg 84%
15:00 +17°C° 0.1 mm 2 mps 751 mmHg 85%
16:00 +17°C° 0.1 mm 2 mps 751 mmHg 87%
17:00 +16°C° 0.1 mm 2 mps 751 mmHg 89%
18:00 +16°C° 0.1 mm 3 mps 751 mmHg 90%
19:00 +16°C° 0 mm 3 mps 751 mmHg 91%
20:00 +16°C° 0 mm 2 mps 751 mmHg 91%
21:00 +15°C° 0 mm 2 mps 751 mmHg 92%
22:00 +14°C° 0.3 mm 3 mps 751 mmHg 92%
23:00 +14°C° 0.3 mm 3 mps 751 mmHg 92%

13 August, Thursday

Time Temperature Precipitation Wind Pressure Humidity
00:00 +14°C° 0.3 mm 4 mps 750 mmHg 93%
01:00 +14°C° 0.2 mm 4 mps 750 mmHg 93%
02:00 +14°C° 0.2 mm 4 mps 750 mmHg 94%
03:00 +14°C° 0.2 mm 4 mps 750 mmHg 95%
04:00 +14°C° 0.2 mm 3 mps 750 mmHg 94%
05:00 +14°C° 0.2 mm 3 mps 749 mmHg 93%
06:00 +15°C° 0.2 mm 2 mps 749 mmHg 92%
07:00 +16°C° 0.3 mm 2 mps 749 mmHg 90%
08:00 +16°C° 0.3 mm 3 mps 749 mmHg 88%
09:00 +17°C° 0.3 mm 3 mps 749 mmHg 86%
10:00 +17°C° 0.6 mm 3 mps 749 mmHg 87%
11:00 +17°C° 0.6 mm 3 mps 749 mmHg 87%
12:00 +17°C° 0.6 mm 2 mps 748 mmHg 88%
13:00 +17°C° 0.5 mm 3 mps 748 mmHg 89%
14:00 +17°C° 0.5 mm 3 mps 748 mmHg 91%
15:00 +15°C° 0.5 mm 4 mps 747 mmHg 92%
16:00 +15°C° 0.3 mm 4 mps 747 mmHg 93%
17:00 +15°C° 0.3 mm 4 mps 747 mmHg 93%
18:00 +16°C° 0.3 mm 3 mps 747 mmHg 93%
19:00 +14°C° 0.2 mm 3 mps 747 mmHg 95%
20:00 +14°C° 0.2 mm 3 mps 747 mmHg 96%
21:00 +13°C° 0.2 mm 3 mps 746 mmHg 97%
22:00 +13°C° 0.4 mm 3 mps 746 mmHg 97%
23:00 +13°C° 0.4 mm 3 mps 746 mmHg 98%

14 August, Friday

Time Temperature Precipitation Wind Pressure Humidity
00:00 +14°C° 0.4 mm 2 mps 746 mmHg 98%
01:00 +14°C° 0 mm 2 mps 746 mmHg 98%
02:00 +14°C° 0 mm 2 mps 746 mmHg 98%
03:00 +14°C° 0 mm 2 mps 746 mmHg 98%
04:00 +14°C° 0.1 mm 2 mps 746 mmHg 97%
05:00 +14°C° 0.1 mm 2 mps 746 mmHg 97%
06:00 +13°C° 0.1 mm 3 mps 746 mmHg 97%
07:00 +13°C° 0.2 mm 3 mps 746 mmHg 96%
08:00 +13°C° 0.2 mm 3 mps 746 mmHg 96%
09:00 +13°C° 0.2 mm 3 mps 746 mmHg 95%
10:00 +13°C° 0.2 mm 3 mps 746 mmHg 95%
11:00 +13°C° 0.2 mm 4 mps 747 mmHg 94%
12:00 +13°C° 0.2 mm 4 mps 747 mmHg 93%
13:00 +13°C° 0 mm 4 mps 747 mmHg 92%
14:00 +13°C° 0 mm 4 mps 747 mmHg 91%
15:00 +12°C° 0 mm 5 mps 747 mmHg 90%
16:00 +12°C° 0 mm 4 mps 747 mmHg 90%
17:00 +12°C° 0 mm 4 mps 748 mmHg 90%
18:00 +11°C° 0 mm 4 mps 748 mmHg 90%
19:00 +11°C° 0 mm 4 mps 748 mmHg 90%
20:00 +10°C° 0 mm 4 mps 748 mmHg 90%
21:00 +10°C° 0 mm 4 mps 748 mmHg 90%
22:00 +10°C° 0 mm 4 mps 748 mmHg 90%
23:00 +10°C° 0 mm 4 mps 748 mmHg 90%

15 August, Saturday

Time Temperature Precipitation Wind Pressure Humidity
00:00 +10°C° 0 mm 4 mps 748 mmHg 90%
01:00 +10°C° 0 mm 4 mps 748 mmHg 90%
02:00 +8°C° 0 mm 4 mps 748 mmHg 90%
03:00 +8°C° 0 mm 4 mps 748 mmHg 91%
04:00 +10°C° 0.1 mm 4 mps 748 mmHg 91%
05:00 +10°C° 0.1 mm 4 mps 747 mmHg 92%
06:00 +10°C° 0.1 mm 4 mps 747 mmHg 92%
07:00 +10°C° 0.1 mm 4 mps 747 mmHg 92%
08:00 +10°C° 0.1 mm 4 mps 747 mmHg 92%
09:00 +10°C° 0.1 mm 4 mps 747 mmHg 92%
10:00 +10°C° 0.2 mm 4 mps 747 mmHg 92%
11:00 +11°C° 0.2 mm 4 mps 747 mmHg 92%
12:00 +11°C° 0.2 mm 4 mps 747 mmHg 92%
13:00 +11°C° 0.1 mm 4 mps 747 mmHg 92%
14:00 +11°C° 0.1 mm 4 mps 747 mmHg 91%
15:00 +12°C° 0.1 mm 4 mps 747 mmHg 91%
16:00 +12°C° 0 mm 4 mps 747 mmHg 91%
17:00 +11°C° 0 mm 3 mps 747 mmHg 92%
18:00 +11°C° 0 mm 3 mps 747 mmHg 92%
19:00 +11°C° 0 mm 3 mps 747 mmHg 94%
20:00 +11°C° 0 mm 3 mps 747 mmHg 95%
21:00 +10°C° 0 mm 2 mps 747 mmHg 97%
22:00 +12°C° 0 mm 2 mps 747 mmHg 96%
23:00 +12°C° 0 mm 2 mps 746 mmHg 96%
Show more